Location: Lecco
(45.8566°N, 9.3977°E)
Time: 01:40:35
(UTC+01:00)

Envisat - Pass Details

Date: 22 October 2019
Orbit: 764 x 766 km, 98.1° (Epoch: 12 November)

Event Time Altitude Azimuth Distance (km) Brightness Sun altitude
Rises 06:59:09 0° 30° (NNE) 3,241 6.6 -9.2°
Reaches altitude 10° 07:02:29 10° 53° (NE) 2,308 6.2 -8.6°
Maximum altitude 07:05:23 15° 88° (E) 1,964 6.6 -8.1°
Drops below altitude 10° 07:08:17 10° 124° (SE) 2,298 6.7 -7.6°
Sets 07:11:35 0° 147° (SSE) 3,217 6.9 -7.0°
